[[{"header":{"parameterUnit":"m.s-1","parameterCategory":1,"la1":30.2991,"la2":30.254,"lo1":-89.0895,"lo2":-89.0444,"dy":0.0017,"dx":0.0017,"nx":28,"ny":28,"refTime":"2025-09-09T03:00:00:Z","depth":0,"parameterNumber":2,"parameterNumberName":"U-component_of_WINDS"},"data":[0,0,0,0,0,0,0,0,0,0,0,0,0,0,0,0,0,0,0,0,0,0,0,0,0,0,0,0,0,0,0,0,0,0,0,0,0,0,0,0,0,0,0,0,0,0,0,0,0,0,0,0,0,0,0,0,0,0,-4.8278,-4.8278,0,-4.8235,-4.8235,-4.8234,-4.81,-4.8097,-4.8094,-4.8091,-4.8049,-4.8051,-4.8052,0,0,0,0,0,0,0,0,0,0,0,0,0,-4.8249,-4.825,-4.8278,-4.8278,-4.8277,-4.8235,-4.8235,-4.8234,-4.8101,-4.8097,-4.8093,-4.809,-4.8049,-4.8051,-4.8053,0,0,0,0,0,0,0,0,0,0,0,0,0,-4.8239,-4.825,-4.8278,-4.8206,-4.8199,-4.8235,-4.8235,-4.8234,-4.8101,-4.8097,-4.8093,-4.8088,-4.8048,-4.805,-4.8053,-4.8157,0,0,-4.806,-4.8061,0,0,0,0,0,0,0,0,-4.824,-4.8241,-4.8217,-4.8211,-4.8203,-4.8168,-4.8208,-4.8208,-4.8103,-4.8138,-4.8091,-4.8086,-4.8093,-4.8091,-4.8093,-4.8155,-4.8153,-4.8061,-4.8062,-4.8063,-4.8064,0,0,0,0,0,0,0,-4.8241,-4.8242,-4.8261,-4.8217,-4.8208,-4.8176,-4.817,-4.8208,-4.8141,-4.8135,-4.8125,-4.8122,-4.8088,-4.8091,-4.8091,-4.8153,-4.8061,-4.8063,-4.8064,-4.8065,-4.8301,-4.8305,0,0,0,0,0,0,-4.8252,-4.8243,-4.8263,-4.826,-4.8211,-4.818,-4.8173,-4.8184,-4.814,-4.8129,-4.8126,-4.8116,-4.8089,-4.8088,-4.8089,-4.8209,-4.8063,-4.8065,-4.8067,-4.8296,-4.8302,-4.8307,0,0,0,0,0,0,-4.8251,-4.8255,-4.8264,-4.8249,-4.8248,-4.8186,-4.8199,-4.8186,-4.8188,-4.8133,-4.8121,-4.8141,-4.8085,-4.8085,-4.8141,-4.8206,-4.8067,-4.8069,-4.829,-4.8298,-4.8304,-4.845,0,0,0,0,0,0,-4.8251,-4.8255,-4.8293,-4.8251,-4.8249,-4.8317,-4.8203,-4.8188,-4.8192,-4.8179,-4.8144,-4.8134,-4.8082,-4.8139,-4.8144,-4.8206,-4.8071,-4.8284,-4.8294,-4.8302,-4.8439,-4.8461,-4.848,0,0,0,0,0,-4.825,-4.8336,-4.8296,-4.8299,-4.8295,-4.8321,-4.832,-4.8258,-4.8198,-4.8237,-4.8202,-4.8135,-4.8198,-4.8145,-4.815,-4.8215,-4.828,-4.8291,-4.8301,-4.843,-4.8457,-4.848,0,0,0,0,0,0,-4.8387,-4.8329,-4.8284,-4.8358,-4.8345,-4.8298,-4.8344,-4.8288,-4.8293,-4.828,-4.8203,-4.8197,-4.8264,-4.8245,-4.8187,-4.8314,-4.8228,-4.824,-4.8324,-4.8349,-4.8369,-4.8372,-4.8073,0,0,0,0,0,-4.8426,-4.8451,-4.8399,-4.8469,-4.8466,-4.8407,-4.8416,-4.8369,-4.8353,-4.8347,-4.8316,-4.8305,-4.8322,-4.8334,-4.8347,-4.8436,-4.8427,-4.8483,-4.8504,-4.8521,-4.8532,-4.8579,-4.8604,-4.8342,-4.8342,-4.8342,0,0,-4.8506,-4.8478,-4.8498,-4.8496,-4.8481,-4.851,-4.8403,-4.8437,-4.8459,-4.8353,-4.8404,-4.8381,-4.8363,-4.8437,-4.8467,-4.8423,-4.8603,-4.8534,-4.8549,-4.855,-4.8593,-4.8618,-4.864,-4.8349,-4.8348,-4.8347,0,0,-4.8667,-4.8648,-4.8705,-4.8693,-4.8671,-4.8632,-4.8646,-4.8608,-4.8589,-4.8639,-4.8561,-4.8586,-4.8617,-4.8607,-4.8607,-4.8768,-4.8707,-4.8774,-4.8881,-4.8928,-4.8949,-4.8967,-4.9025,-4.9047,-4.8786,-4.8786,-4.8787,0,-4.877,-4.8809,-4.8741,-4.8782,-4.8784,-4.869,-4.8749,-4.874,-4.8725,-4.8729,-4.8679,-4.8717,-4.8698,-4.8769,-4.8809,-4.8811,-4.8826,-4.8777,-4.8951,-4.8969,-4.8984,-4.9039,-4.9061,-4.8795,-4.8794,-4.8793,-4.8792,0,-4.8937,-4.8966,-4.9015,-4.9002,-4.901,-4.906,-4.9001,-4.9018,-4.8972,-4.8938,-4.8992,-4.8966,-4.8973,-4.8986,-4.8941,-4.9052,-4.9025,-4.8965,-4.8876,-4.9019,-4.9069,-4.9089,-4.8807,-4.8804,-4.8801,-4.8799,0,0,-4.918,-4.9132,-4.9151,-4.9145,-4.9116,-4.9138,-4.9184,-4.9191,-4.9207,-4.9201,-4.9238,-4.9268,-4.9212,-4.9212,-4.9165,-4.9207,-4.9338,-4.9141,-4.914,-4.9179,-4.946,-4.9505,-4.9531,-4.9298,-4.9302,-4.9305,-4.9461,0,-4.9332,-4.9407,-4.935,-4.9436,-4.9463,-4.9376,-4.9416,-4.9404,-4.9375,-4.9395,-4.9362,-4.9385,-4.931,-4.9309,-4.9347,-4.9314,-4.9393,-4.9302,-4.9333,-4.9335,-4.934,-4.9556,-4.9604,-4.9753,-4.9481,-4.9484,-4.9486,0,-4.952,-4.9522,-4.9611,-4.9579,-4.9588,-4.9626,-4.9628,-4.9648,-4.9633,-4.9609,-4.9611,-4.9554,-4.9598,-4.9513,-4.9574,-4.9513,-4.9523,-4.951,-4.9514,-4.9514,-4.9419,-4.9563,-4.9799,-4.9821,-4.9516,-4.9514,-4.9512,0,-4.9689,-4.9715,-4.9772,-4.977,-4.9733,-4.9762,-4.9748,-4.9729,-4.9738,-4.9741,-4.9745,-4.9754,-4.9759,-4.9767,-4.9715,-4.9657,-4.9784,-4.9693,-4.9766,-4.9767,-4.9795,-4.9794,-5.0036,-4.9803,-4.9802,-4.9802,-4.9801,0,-4.9865,-4.9923,-4.9848,-4.9883,-4.9946,-4.988,-4.9945,-4.9922,-4.9907,-4.9937,-4.9862,-4.9893,-4.9822,-4.9845,-4.9805,-4.9863,-4.9865,-4.9848,-4.9836,-4.9854,-4.9857,-4.9859,-4.9847,-4.9808,-4.9806,-4.9805,-4.9804,0,-5.0064,-5.0016,-5.0072,-5.0034,-5.0026,-5.0075,-5.0042,-5.0074,-5.0041,-5.008,-5.0086,-5.0035,-5.0058,-5.0008,-5.0024,-4.9997,-5.0079,-5.0051,-5.0084,-5.0076,-5.0152,-5.0145,-5.0404,-5.0435,-5.0181,-5.0184,-5.0186,0,-5.0179,-5.0222,-5.0189,-5.0204,-5.0195,-5.022,-5.0229,-5.0167,-5.0179,-5.0167,-5.0201,-5.0219,-5.0229,-5.0272,-5.0237,-5.025,-5.0222,-5.0312,-5.0223,-5.0241,-5.0224,-5.0222,-5.0226,-5.033,-5.0333,-5.0335,-5.0337,0,-5.0389,-5.0364,-5.0379,-5.0388,-5.04,-5.0404,-5.0401,-5.0418,-5.0353,-5.0371,-5.0394,-5.0403,-5.0421,-5.044,-5.0446,-5.0432,-5.0375,-5.0366,-5.0383,-5.0402,-5.0419,-5.0411,-5.0134,-5.036,-5.0357,-5.0356,-5.0355,-5.0354,-5.055,-5.0584,-5.0568,-5.0588,-5.058,-5.0581,-5.061,-5.0581,-5.06,-5.0609,-5.0572,-5.0605,-5.0591,-5.0593,-5.0586,-5.0612,-5.0571,-5.0597,-5.0603,-5.061,-5.0623,-5.0416,-5.0612,-5.0612,-5.0611,-5.061,-5.061,0,-5.0756,-5.0742,-5.0761,-5.0762,-5.0778,-5.0723,-5.0719,-5.0737,-5.0767,-5.0759,-5.0772,-5.0801,-5.082,-5.0787,-5.0801,-5.0828,-5.0802,-5.0834,-5.0831,-5.0829,-5.0658,-5.0641,-5.0854,-5.0854,-5.0854,-5.0854,-5.0854,-5.0854,-5.0865,-5.0922,-5.0895,-5.0948,-5.0933,-5.0965,-5.0968,-5.0969,-5.0962,-5.0998,-5.1013,-5.0992,-5.0975,-5.0988,-5.1003,-5.0993,-5.1002,-5.1043,-5.1024,-5.0865,-5.0841,-5.0818,-5.0802,-5.1046,-5.1046,-5.1193,-5.1195,-5.1196]},{"header":{"parameterUnit":"m.s-1","parameterCategory":1,"la1":30.2991,"la2":30.254,"lo1":-89.0895,"lo2":-89.0444,"dy":0.0017,"dx":0.0017,"nx":28,"ny":28,"refTime":"2025-09-09T03:00:00:Z","depth":0,"parameterNumber":3,"parameterNumberName":"V-component_of_WINDS"},"data":[0,0,0,0,0,0,0,0,0,0,0,0,0,0,0,0,0,0,0,0,0,0,0,0,0,0,0,0,0,0,0,0,0,0,0,0,0,0,0,0,0,0,0,0,0,0,0,0,0,0,0,0,0,0,0,0,0,0,0.1709,0.1708,0,0.1581,0.158,0.1578,0.1566,0.1567,0.1568,0.157,0.1434,0.1429,0.1425,0,0,0,0,0,0,0,0,0,0,0,0,0,0.1939,0.1935,0.1709,0.1707,0.1706,0.1581,0.158,0.1578,0.1565,0.1567,0.1569,0.157,0.1436,0.143,0.1424,0,0,0,0,0,0,0,0,0,0,0,0,0,0.1828,0.1934,0.1709,0.1685,0.1681,0.1582,0.158,0.1577,0.1565,0.1567,0.1569,0.1571,0.1438,0.1431,0.1423,0.1338,0,0,0.1401,0.1398,0,0,0,0,0,0,0,0,0.1835,0.182,0.169,0.1686,0.1682,0.1592,0.1611,0.1497,0.1565,0.1609,0.157,0.1572,0.1485,0.1474,0.1445,0.1332,0.1326,0.14,0.1396,0.1393,0.1391,0,0,0,0,0,0,0,0.1842,0.1825,0.1658,0.1688,0.1683,0.1679,0.1666,0.159,0.1537,0.1605,0.1604,0.1589,0.1483,0.1452,0.1442,0.1324,0.1401,0.1394,0.139,0.1387,0.1136,0.1134,0,0,0,0,0,0,0.1855,0.1832,0.1662,0.1654,0.1765,0.1673,0.1658,0.1618,0.1538,0.1527,0.1588,0.1589,0.1464,0.145,0.1437,0.1332,0.1393,0.1386,0.1382,0.1139,0.1136,0.1133,0,0,0,0,0,0,0.186,0.184,0.1667,0.1743,0.1721,0.1667,0.1623,0.1615,0.1584,0.1525,0.1515,0.1566,0.1465,0.1447,0.1364,0.1327,0.1383,0.1376,0.1141,0.1138,0.1135,0.1123,0,0,0,0,0,0,0.1867,0.1842,0.1809,0.1742,0.1717,0.1597,0.1621,0.1611,0.1572,0.1573,0.1502,0.1492,0.1465,0.1375,0.1356,0.1318,0.1371,0.1144,0.114,0.1136,0.1126,0.1119,0.1113,0,0,0,0,0,0.1875,0.181,0.1808,0.1787,0.1675,0.1595,0.158,0.1552,0.1569,0.1536,0.1498,0.1494,0.1335,0.1366,0.1345,0.1305,0.1146,0.1141,0.1136,0.1129,0.112,0.1113,0,0,0,0,0,0,0.1871,0.18,0.1797,0.1709,0.1658,0.1593,0.1549,0.1544,0.1485,0.1488,0.1454,0.1438,0.1356,0.1322,0.1358,0.1219,0.1242,0.1233,0.1244,0.1235,0.1229,0.1238,0.1365,0,0,0,0,0,0.1861,0.1803,0.1743,0.1671,0.1646,0.1603,0.1566,0.1549,0.1495,0.1473,0.1429,0.1375,0.1313,0.1273,0.1212,0.1122,0.1106,0.1084,0.1078,0.1073,0.1064,0.1015,0.1004,0.1117,0.1117,0.1117,0,0,0.1837,0.1791,0.1756,0.1669,0.1628,0.1568,0.1584,0.1519,0.1474,0.1462,0.1381,0.1348,0.1285,0.1198,0.1158,0.1168,0.1031,0.1067,0.1063,0.1057,0.1008,0.0998,0.0988,0.1113,0.1114,0.1114,0,0,0.1763,0.1723,0.1659,0.1618,0.1557,0.1529,0.1514,0.145,0.1427,0.1346,0.1336,0.1282,0.1176,0.1133,0.1097,0.101,0.1004,0.0992,0.0958,0.091,0.0901,0.0893,0.0862,0.0851,0.0984,0.0984,0.0984,0,0.1741,0.1651,0.1626,0.1562,0.1524,0.1514,0.1448,0.1409,0.1331,0.1304,0.1317,0.1186,0.1143,0.1046,0.1025,0.0997,0.0978,0.0998,0.0905,0.0896,0.0888,0.0858,0.0847,0.0983,0.0983,0.0983,0.0983,0,0.1627,0.1565,0.152,0.1447,0.1404,0.134,0.1304,0.1264,0.1252,0.1222,0.114,0.109,0.1019,0.0996,0.0982,0.0897,0.0905,0.0912,0.0934,0.0877,0.0848,0.0836,0.0981,0.0981,0.0982,0.0982,0,0,0.1544,0.146,0.1444,0.1411,0.1344,0.1295,0.1231,0.1165,0.1131,0.1078,0.1022,0.0935,0.0942,0.0901,0.0883,0.0841,0.0776,0.0853,0.0851,0.084,0.0679,0.0673,0.066,0.0773,0.0771,0.0769,0.0684,0,0.1461,0.1348,0.1324,0.1225,0.1168,0.1159,0.1103,0.1056,0.1028,0.0974,0.0943,0.0881,0.0895,0.0871,0.0829,0.0793,0.0743,0.0799,0.072,0.0717,0.0734,0.0645,0.0638,0.056,0.0673,0.0671,0.067,0,0.1349,0.1296,0.1192,0.1135,0.111,0.106,0.0998,0.0948,0.0894,0.0877,0.0834,0.0821,0.0753,0.0781,0.0688,0.0726,0.0693,0.0671,0.0667,0.0657,0.0688,0.0631,0.0535,0.0523,0.0652,0.0653,0.0654,0,0.1298,0.1201,0.1126,0.1099,0.103,0.0995,0.0965,0.0914,0.0876,0.0822,0.0797,0.0736,0.0701,0.0654,0.0625,0.0648,0.0533,0.0559,0.0516,0.0516,0.049,0.0491,0.0385,0.0472,0.0472,0.0472,0.0472,0,0.1207,0.1144,0.1102,0.1056,0.0985,0.096,0.089,0.086,0.0815,0.0762,0.0751,0.0702,0.0668,0.0614,0.0591,0.0517,0.0501,0.0485,0.0479,0.0484,0.0486,0.046,0.0464,0.0469,0.047,0.047,0.0471,0,0.1137,0.1107,0.1025,0.0968,0.0952,0.0902,0.0853,0.0808,0.0782,0.0716,0.0699,0.0656,0.0592,0.0559,0.0479,0.0464,0.038,0.0378,0.0398,0.0396,0.0354,0.0358,0.0226,0.0207,0.0308,0.0307,0.0306,0,0.108,0.1031,0.097,0.0935,0.0905,0.0848,0.0811,0.0785,0.0745,0.0683,0.0645,0.0582,0.0529,0.0427,0.0388,0.0328,0.0323,0.0281,0.0313,0.0321,0.0321,0.0324,0.0319,0.0275,0.0274,0.0273,0.0272,0,0.0982,0.097,0.0917,0.0859,0.0815,0.0767,0.072,0.0692,0.0659,0.0616,0.0551,0.0511,0.0431,0.0367,0.0304,0.0272,0.0266,0.0263,0.025,0.0254,0.0267,0.0258,0.0381,0.0265,0.0266,0.0267,0.0267,0.0267,0.0915,0.0872,0.0823,0.0764,0.0727,0.0685,0.064,0.0609,0.0556,0.0489,0.0477,0.0409,0.0359,0.0274,0.0241,0.0187,0.0195,0.0176,0.0171,0.0166,0.0164,0.0278,0.0175,0.0175,0.0175,0.0175,0.0176,0,0.0815,0.0785,0.0731,0.0668,0.0622,0.0624,0.0573,0.0534,0.0474,0.0429,0.0379,0.0305,0.0245,0.0203,0.0141,0.0106,0.0102,0.0091,0.0092,0.0084,0.016,0.0177,0.0095,0.0095,0.0095,0.0095,0.0095,0.0095,0.0758,0.0685,0.0668,0.0578,0.0547,0.0481,0.0452,0.0413,0.0377,0.0296,0.0246,0.0221,0.0176,0.0112,0.0057,0.0046,0.0023,0.0011,0.0,0.0071,0.0079,0.0087,0.0103,0.0007,0.0007,-0.007,-0.0071,-0.0072]}]]